[[{"header":{"parameterUnit":"m.s-1","parameterCategory":1,"la1":30.2991,"la2":30.254,"lo1":-89.0895,"lo2":-89.0444,"dy":0.0017,"dx":0.0017,"nx":28,"ny":28,"refTime":"2024-04-03T09:00:00:Z","depth":0,"parameterNumber":2,"parameterNumberName":"U-component_of_WINDS"},"data":[0,0,0,0,0,0,0,0,0,0,0,0,0,0,0,0,0,0,0,0,0,0,0,0,0,0,0,0,0,0,0,0,0,0,0,0,0,0,0,0,0,0,0,0,0,0,0,0,0,0,0,0,0,0,0,0,0,0,6.2173,6.2175,0,6.2292,6.2294,6.2295,6.2289,6.2287,6.2285,6.2284,6.2405,6.241,6.2415,0,0,0,0,0,0,0,0,0,0,0,0,0,6.1942,6.1947,6.2173,6.2175,6.2176,6.2292,6.2294,6.2295,6.2289,6.2287,6.2285,6.2283,6.2404,6.2409,6.2415,0,0,0,0,0,0,0,0,0,0,0,0,0,6.205,6.1948,6.2173,6.2187,6.219,6.2292,6.2294,6.2296,6.2289,6.2287,6.2284,6.2282,6.2402,6.2409,6.2416,6.2512,0,0,6.2438,6.2441,0,0,0,0,0,0,0,0,6.2044,6.2059,6.2184,6.2186,6.2189,6.2273,6.2257,6.2368,6.229,6.2252,6.2284,6.2281,6.2363,6.2374,6.2401,6.2518,6.2523,6.2439,6.2443,6.2446,6.2448,0,0,0,0,0,0,0,6.2037,6.2054,6.222,6.2185,6.2189,6.2188,6.2201,6.2278,6.232,6.2255,6.2255,6.2269,6.2364,6.2395,6.2404,6.2525,6.2438,6.2445,6.2449,6.2452,6.2729,6.2732,0,0,0,0,0,0,6.2026,6.2047,6.2217,6.2224,6.2109,6.2194,6.2208,6.2249,6.2319,6.2328,6.2271,6.2268,6.2383,6.2396,6.2409,6.2528,6.2446,6.2453,6.2457,6.2726,6.2729,6.2733,0,0,0,0,0,0,6.2021,6.2041,6.2212,6.2136,6.2157,6.2201,6.2247,6.2252,6.2283,6.2332,6.2339,6.2294,6.2382,6.2398,6.2487,6.2532,6.2456,6.2463,6.2722,6.2727,6.2731,6.2765,0,0,0,0,0,0,6.2014,6.2039,6.2076,6.2137,6.2161,6.2288,6.2249,6.2257,6.2295,6.2293,6.2355,6.2363,6.2381,6.2476,6.2494,6.254,6.2468,6.2718,6.2724,6.273,6.276,6.277,6.2779,0,0,0,0,0,6.2006,6.208,6.2077,6.2098,6.2208,6.229,6.2305,6.2324,6.2299,6.2336,6.2368,6.2361,6.2524,6.2485,6.2505,6.2554,6.2716,6.2723,6.2729,6.2756,6.2768,6.2778,0,0,0,0,0,0,6.2022,6.2088,6.2086,6.2181,6.2231,6.2289,6.2336,6.2336,6.2393,6.2388,6.241,6.2424,6.2513,6.2543,6.2499,6.2653,6.2617,6.2628,6.263,6.2642,6.2651,6.2642,6.2474,0,0,0,0,0,6.2037,6.2098,6.2152,6.2231,6.2256,6.2292,6.2329,6.234,6.2391,6.2412,6.245,6.2501,6.2564,6.2604,6.2665,6.2764,6.2779,6.2808,6.2817,6.2825,6.2834,6.2892,6.2906,6.2755,6.2755,6.2755,0,0,6.2067,6.2111,6.2148,6.2236,6.2275,6.2339,6.231,6.2378,6.2426,6.2422,6.2509,6.2539,6.2597,6.2692,6.2736,6.272,6.288,6.2834,6.2839,6.2845,6.29,6.2915,6.2927,6.2759,6.2758,6.2758,0,0,6.2156,6.2195,6.2266,6.2307,6.2367,6.2391,6.2408,6.2468,6.2488,6.2575,6.2575,6.2633,6.274,6.2782,6.2817,6.2926,6.2922,6.2945,6.2993,6.3049,6.3061,6.3072,6.3112,6.3126,6.2954,6.2954,6.2954,0,6.2187,6.2283,6.2303,6.2373,6.2412,6.2413,6.2486,6.2524,6.2601,6.2629,6.2609,6.2745,6.2784,6.2891,6.2917,6.2945,6.2967,6.2937,6.3058,6.3069,6.3079,6.3118,6.3133,6.2956,6.2956,6.2956,6.2956,0,6.2319,6.2385,6.2436,6.2511,6.2556,6.2627,6.2659,6.2702,6.271,6.2737,6.2827,6.2874,6.2945,6.2971,6.2979,6.308,6.3068,6.3053,6.3017,6.3095,6.3132,6.3147,6.296,6.2959,6.2958,6.2958,0,0,6.2419,6.2507,6.2525,6.2561,6.2628,6.2681,6.2753,6.2823,6.2861,6.2914,6.2976,6.3068,6.3055,6.3096,6.3108,6.3157,6.3243,6.3137,6.3138,6.3156,6.3359,6.3371,6.3388,6.3241,6.3244,6.3246,6.3355,0,6.2517,6.2644,6.2666,6.2778,6.2841,6.2844,6.2907,6.2956,6.2984,6.3042,6.3072,6.3138,6.3115,6.314,6.3188,6.3222,6.3284,6.3214,6.33,6.3303,6.3286,6.3407,6.3419,6.3519,6.3369,6.3372,6.3374,0,6.2646,6.2705,6.2824,6.2886,6.2913,6.2969,6.3037,6.3092,6.3148,6.3165,6.3211,6.3219,6.3295,6.3257,6.3363,6.3315,6.3352,6.3374,6.3378,6.3388,6.3343,6.342,6.3551,6.3567,6.3396,6.3394,6.3393,0,6.271,6.2819,6.2904,6.2934,6.3008,6.3048,6.3081,6.3135,6.3176,6.3235,6.3263,6.333,6.3367,6.3419,6.3446,6.3415,6.3551,6.3514,6.3568,6.3568,6.3597,6.3595,6.3736,6.3619,6.3619,6.3618,6.3618,0,6.2817,6.289,6.2935,6.2987,6.307,6.3094,6.3176,6.3207,6.3256,6.3316,6.3322,6.3378,6.3409,6.3471,6.3492,6.3578,6.3594,6.3611,6.3615,6.3611,6.3609,6.3635,6.3629,6.3622,6.3621,6.3621,6.362,0,6.2902,6.2935,6.3029,6.3092,6.3109,6.3168,6.3222,6.3274,6.3302,6.3378,6.3397,6.3441,6.3514,6.3545,6.3634,6.3648,6.3748,6.3747,6.3729,6.373,6.3784,6.3779,6.3948,6.3972,6.3837,6.3839,6.384,0,6.2969,6.3025,6.3095,6.3136,6.317,6.3235,6.3279,6.3305,6.335,6.342,6.3465,6.3537,6.3597,6.3713,6.3754,6.3823,6.3824,6.3879,6.3835,6.3829,6.3827,6.3824,6.383,6.3887,6.3888,6.3889,6.389,0,6.3084,6.3098,6.316,6.3228,6.328,6.3335,6.3389,6.3422,6.3457,6.3508,6.3582,6.3629,6.3721,6.3794,6.3866,6.39,6.3902,6.3904,6.3921,6.3917,6.3904,6.3913,6.3752,6.39,6.3899,6.3898,6.3898,6.3897,6.3163,6.3214,6.3272,6.3342,6.3385,6.3436,6.3489,6.3524,6.3587,6.3664,6.3676,6.3757,6.3814,6.3911,6.3948,6.4012,6.3999,6.4022,6.4028,6.4034,6.4038,6.3894,6.4025,6.4025,6.4025,6.4025,6.4024,0,6.328,6.3318,6.3381,6.3457,6.3513,6.351,6.357,6.3616,6.3687,6.374,6.38,6.3887,6.3958,6.4005,6.4078,6.412,6.4123,6.4138,6.4136,6.4144,6.4045,6.4024,6.4135,6.4135,6.4135,6.4135,6.4135,6.4135,6.3347,6.3435,6.3456,6.3566,6.3603,6.3682,6.3717,6.3765,6.3808,6.3905,6.3964,6.3994,6.4046,6.4123,6.4189,6.4201,6.4228,6.4244,6.4256,6.4162,6.4151,6.414,6.4121,6.425,6.425,6.435,6.4351,6.4352]},{"header":{"parameterUnit":"m.s-1","parameterCategory":1,"la1":30.2991,"la2":30.254,"lo1":-89.0895,"lo2":-89.0444,"dy":0.0017,"dx":0.0017,"nx":28,"ny":28,"refTime":"2024-04-03T09:00:00:Z","depth":0,"parameterNumber":3,"parameterNumberName":"V-component_of_WINDS"},"data":[0,0,0,0,0,0,0,0,0,0,0,0,0,0,0,0,0,0,0,0,0,0,0,0,0,0,0,0,0,0,0,0,0,0,0,0,0,0,0,0,0,0,0,0,0,0,0,0,0,0,0,0,0,0,0,0,0,0,-2.5926,-2.5926,0,-2.5942,-2.5943,-2.5943,-2.5967,-2.5967,-2.5968,-2.5968,-2.5982,-2.5982,-2.5982,0,0,0,0,0,0,0,0,0,0,0,0,0,-2.5913,-2.5913,-2.5926,-2.5926,-2.5926,-2.5942,-2.5943,-2.5943,-2.5967,-2.5967,-2.5968,-2.5968,-2.5982,-2.5982,-2.5982,0,0,0,0,0,0,0,0,0,0,0,0,0,-2.5923,-2.5913,-2.5925,-2.594,-2.5941,-2.5942,-2.5943,-2.5943,-2.5967,-2.5967,-2.5968,-2.5969,-2.5982,-2.5982,-2.5982,-2.5969,0,0,-2.5982,-2.5982,0,0,0,0,0,0,0,0,-2.5922,-2.5923,-2.5938,-2.5939,-2.5941,-2.5953,-2.5943,-2.5951,-2.5967,-2.5957,-2.5968,-2.5969,-2.5972,-2.5972,-2.5974,-2.5969,-2.597,-2.5982,-2.5982,-2.5982,-2.5982,0,0,0,0,0,0,0,-2.5921,-2.5922,-2.5932,-2.5938,-2.594,-2.5945,-2.5947,-2.5945,-2.596,-2.5958,-2.596,-2.5962,-2.5973,-2.5974,-2.5975,-2.597,-2.5982,-2.5982,-2.5982,-2.5982,-2.5958,-2.5958,0,0,0,0,0,0,-2.5919,-2.5922,-2.5932,-2.5933,-2.5933,-2.5945,-2.5947,-2.5948,-2.5961,-2.5963,-2.5961,-2.5963,-2.5974,-2.5975,-2.5975,-2.5962,-2.5982,-2.5982,-2.5982,-2.5959,-2.5958,-2.5957,0,0,0,0,0,0,-2.5918,-2.5919,-2.5931,-2.5928,-2.593,-2.5945,-2.5946,-2.5948,-2.595,-2.5963,-2.5966,-2.596,-2.5974,-2.5975,-2.5971,-2.5963,-2.5982,-2.5982,-2.596,-2.5959,-2.5958,-2.5935,0,0,0,0,0,0,-2.5918,-2.5919,-2.5914,-2.5928,-2.593,-2.5927,-2.5945,-2.5948,-2.595,-2.5953,-2.5963,-2.5965,-2.5975,-2.5971,-2.5971,-2.5963,-2.5982,-2.596,-2.5959,-2.5958,-2.5936,-2.5933,-2.5931,0,0,0,0,0,-2.5917,-2.5906,-2.5914,-2.5915,-2.5924,-2.5926,-2.5927,-2.594,-2.595,-2.5945,-2.5954,-2.5964,-2.5964,-2.597,-2.5971,-2.5962,-2.5961,-2.5959,-2.5958,-2.5938,-2.5934,-2.5931,0,0,0,0,0,0,-2.589,-2.5908,-2.5917,-2.591,-2.5916,-2.593,-2.5925,-2.5936,-2.5939,-2.5941,-2.5956,-2.5958,-2.5952,-2.5957,-2.5964,-2.5952,-2.5964,-2.5963,-2.5949,-2.5945,-2.5942,-2.5941,-2.5981,0,0,0,0,0,-2.5883,-2.5884,-2.5899,-2.5891,-2.5895,-2.5909,-2.591,-2.592,-2.5927,-2.593,-2.5938,-2.5944,-2.5945,-2.5945,-2.5947,-2.5938,-2.5941,-2.5933,-2.593,-2.5927,-2.5926,-2.5923,-2.592,-2.5953,-2.5953,-2.5953,0,0,-2.5868,-2.5879,-2.5878,-2.5886,-2.5893,-2.5893,-2.5911,-2.591,-2.591,-2.5929,-2.5926,-2.5933,-2.594,-2.5934,-2.5931,-2.5938,-2.5918,-2.5926,-2.5924,-2.5923,-2.5921,-2.5918,-2.5915,-2.5952,-2.5952,-2.5952,0,0,-2.5842,-2.585,-2.5845,-2.5852,-2.5862,-2.5873,-2.5872,-2.5884,-2.589,-2.5888,-2.5903,-2.5903,-2.5905,-2.591,-2.5913,-2.5893,-2.5903,-2.5893,-2.5877,-2.5874,-2.5871,-2.5869,-2.5863,-2.586,-2.5891,-2.5891,-2.5891,0,-2.5823,-2.5824,-2.5841,-2.584,-2.5843,-2.5863,-2.5858,-2.5864,-2.5873,-2.5875,-2.5883,-2.5887,-2.5894,-2.589,-2.5885,-2.5886,-2.5886,-2.5891,-2.5871,-2.5869,-2.5867,-2.5861,-2.5858,-2.589,-2.589,-2.589,-2.589,0,-2.58,-2.5801,-2.5796,-2.5807,-2.581,-2.5807,-2.5823,-2.5825,-2.5835,-2.5844,-2.5843,-2.5852,-2.5857,-2.5857,-2.5865,-2.5854,-2.5858,-2.5868,-2.5881,-2.5862,-2.5857,-2.5854,-2.5888,-2.5889,-2.5889,-2.5889,0,0,-2.5755,-2.5778,-2.5775,-2.5782,-2.5796,-2.5797,-2.5795,-2.5802,-2.5803,-2.581,-2.5809,-2.5812,-2.5822,-2.5825,-2.5835,-2.5833,-2.5817,-2.5843,-2.5844,-2.5838,-2.5807,-2.5799,-2.5796,-2.5825,-2.5824,-2.5824,-2.5806,0,-2.5731,-2.5731,-2.5747,-2.5742,-2.5744,-2.5764,-2.5763,-2.5771,-2.5781,-2.5783,-2.5794,-2.5796,-2.5808,-2.5811,-2.5809,-2.5819,-2.5811,-2.5821,-2.5824,-2.5824,-2.5821,-2.5793,-2.5784,-2.5767,-2.5804,-2.5804,-2.5803,0,-2.5703,-2.5711,-2.5707,-2.5723,-2.5725,-2.5723,-2.5732,-2.5734,-2.5745,-2.5752,-2.5758,-2.577,-2.577,-2.5783,-2.5784,-2.579,-2.5793,-2.5798,-2.5798,-2.5798,-2.5812,-2.5792,-2.5762,-2.5759,-2.58,-2.58,-2.5801,0,-2.5671,-2.568,-2.568,-2.5684,-2.5703,-2.5702,-2.571,-2.5722,-2.5725,-2.5733,-2.5736,-2.5742,-2.5746,-2.5751,-2.5765,-2.5773,-2.5764,-2.5778,-2.577,-2.577,-2.5766,-2.5766,-2.5735,-2.5768,-2.5768,-2.5768,-2.5769,0,-2.5643,-2.564,-2.5666,-2.5665,-2.5662,-2.5681,-2.5678,-2.5688,-2.5698,-2.57,-2.5717,-2.5718,-2.5738,-2.5741,-2.5752,-2.5752,-2.5753,-2.5759,-2.5762,-2.5757,-2.5756,-2.5758,-2.576,-2.5768,-2.5768,-2.5768,-2.5768,0,-2.5606,-2.5624,-2.5624,-2.5644,-2.5648,-2.5646,-2.5662,-2.5662,-2.5674,-2.5676,-2.5678,-2.5696,-2.5701,-2.5717,-2.5725,-2.5733,-2.5729,-2.5734,-2.5725,-2.5727,-2.5719,-2.5719,-2.5688,-2.5685,-2.5719,-2.5719,-2.5719,0,-2.5587,-2.5585,-2.5606,-2.5609,-2.5616,-2.5621,-2.5626,-2.5645,-2.5649,-2.5663,-2.5661,-2.5669,-2.5675,-2.5682,-2.5696,-2.5703,-2.5709,-2.5698,-2.571,-2.5706,-2.5709,-2.5709,-2.571,-2.5694,-2.5694,-2.5694,-2.5693,0,-2.5551,-2.5561,-2.5567,-2.5578,-2.5583,-2.5592,-2.5601,-2.5603,-2.5624,-2.5628,-2.5635,-2.564,-2.565,-2.5657,-2.5667,-2.5675,-2.5688,-2.569,-2.5688,-2.5683,-2.5678,-2.5682,-2.5718,-2.569,-2.569,-2.569,-2.5691,-2.5691,-2.5523,-2.5523,-2.5538,-2.5545,-2.5555,-2.5564,-2.5566,-2.558,-2.5586,-2.5596,-2.5608,-2.5613,-2.5626,-2.5641,-2.5648,-2.5653,-2.5659,-2.5657,-2.5657,-2.5656,-2.5654,-2.5678,-2.5655,-2.5655,-2.5655,-2.5655,-2.5655,0,-2.5489,-2.55,-2.5507,-2.5521,-2.5527,-2.5541,-2.5553,-2.5556,-2.5562,-2.5573,-2.558,-2.5589,-2.5596,-2.5612,-2.5621,-2.5621,-2.5628,-2.5623,-2.5623,-2.5625,-2.5647,-2.5648,-2.5618,-2.5618,-2.5618,-2.5618,-2.5618,-2.5618,-2.5471,-2.5473,-2.5484,-2.5491,-2.5503,-2.5509,-2.5515,-2.5524,-2.5534,-2.5543,-2.555,-2.5561,-2.5574,-2.5585,-2.5593,-2.5597,-2.5599,-2.5593,-2.5599,-2.562,-2.5623,-2.5626,-2.5627,-2.5593,-2.5593,-2.5577,-2.5577,-2.5576]}]]